CW9414 Weather Reports


Display with metric or nautical units.
time (UTC)temp
F
wind
direction
speed
MPH
gust
MPH
rain 1hr
in
rain 24hr
in
rain mn
in
humidity
%
barometer
mb
20260904190503 81 355 0.0 1.0 0.00 0.00 0.15 82 1010.2
20260904173451 81 229 0.0 0.0 0.00 0.00 0.15 84 1011.3
20260904172453 81 229 0.0 0.0 0.00 0.00 0.15 83 1011.3
20260904171450 81 229 0.0 0.0 0.00 0.00 0.15 82 1011.3
20260904170450 82 229 0.0 0.0 0.00 0.00 0.15 80 1011.3
20260904165450 82 229 0.0 0.0 0.00 0.00 0.15 80 1011.4
20260904164451 83 229 0.0 0.0 0.00 0.00 0.15 78 1011.3
20260904163450 84 232 0.0 1.0 0.00 0.00 0.15 76 1011.3
20260904162453 85 236 0.0 0.0 0.00 0.00 0.01 75 1011.3
20260904161450 86 236 0.0 3.0 0.00 0.00 0.01 72 1010.8
20260904160450 87 237 0.0 4.0 0.00 0.00 0.00 71 1010.8
20260904155451 87 169 3.0 4.0 0.00 0.00 0.00 72 1010.6
20260904154450 88 159 0.0 4.0 0.00 0.00 0.00 74 1010.3
20260904153450 88 159 0.0 2.0 0.00 0.00 0.00 75 1010.3
20260904152450 87 159 0.0 3.0 0.00 0.00 0.00 79 1010.3
20260904151450 86 159 0.0 2.0 0.00 0.00 0.00 80 1010.3
20260904150450 86 159 0.0 1.0 0.00 0.00 0.00 81 1010.3
20260904145450 86 159 2.0 3.0 0.00 0.00 0.00 84 1010.3
20260904144450 85 54 0.0 0.0 0.00 0.00 0.00 86 1010.2
20260904143453 85 54 0.0 2.0 0.00 0.00 0.00 87 1010.2
20260904142450 84 54 2.0 3.0 0.00 0.00 0.00 89 1010.2
20260904141450 84 54 0.0 0.0 0.00 0.00 0.00 90 1010.2
20260904140450 83 54 0.0 0.0 0.00 0.00 0.00 91 1010.2
20260904135450 83 42 0.0 2.0 0.00 0.00 0.00 92 1010.2
20260904134450 82 42 0.0 2.0 0.00 0.00 0.00 92 1010.2
20260904133450 82 42 0.0 0.0 0.00 0.00 0.00 92 1010.2
20260904132450 82 42 0.0 1.0 0.00 0.00 0.00 92 1009.9
20260904131450 81 42 0.0 0.0 0.00 0.00 0.00 92 1009.7
20260904130450 81 42 0.0 0.0 0.00 0.00 0.00 92 1009.7
20260904125450 80 42 0.0 0.0 0.00 0.00 0.00 92 1009.7
20260904124450 80 42 0.0 0.0 0.00 0.00 0.00 92 1009.5
20260904123453 80 42 0.0 0.0 0.00 0.00 0.00 92 1009.5
20260904122450 80 42 0.0 0.0 0.00 0.00 0.00 91 1009.2
20260904121450 80 42 0.0 0.0 0.00 0.00 0.00 91 1009.1
20260904120453 80 42 0.0 0.0 0.00 0.00 0.00 91 1009.1
20260904115453 80 42 0.0 0.0 0.00 0.00 0.00 91 1009.1
20260904114450 80 42 0.0 0.0 0.00 0.00 0.00 91 1009.1
20260904113449 80 42 0.0 0.0 0.00 0.00 0.00 91 1009.1
20260904112449 80 42 0.0 0.0 0.00 0.00 0.00 91 1009.1
20260904111450 80 42 0.0 0.0 0.00 0.00 0.00 91 1009.1
20260904110450 80 42 0.0 0.0 0.00 0.00 0.00 91 1009.1
20260904105453 80 42 0.0 0.0 0.00 0.00 0.00 91 1008.9
20260904104449 80 42 0.0 0.0 0.00 0.00 0.00 90 1008.7
20260904103453 80 42 0.0 0.0 0.00 0.00 0.00 90 1008.7
20260904102450 80 42 0.0 0.0 0.00 0.00 0.00 90 1008.6
20260904101450 80 42 0.0 0.0 0.00 0.00 0.00 90 1008.6
20260904100449 80 42 0.0 0.0 0.00 0.00 0.00 90 1008.6
20260904095450 80 42 0.0 0.0 0.00 0.00 0.00 90 1008.6
20260904094450 80 42 0.0 0.0 0.00 0.00 0.00 90 1008.5
20260904093450 80 42 0.0 0.0 0.00 0.00 0.00 90 1008.5
20260904092449 80 42 0.0 0.0 0.00 0.00 0.00 90 1008.5
20260904091450 80 42 0.0 0.0 0.00 0.00 0.00 90 1008.5
20260904090449 80 42 0.0 0.0 0.00 0.00 0.00 90 1008.5
20260904085449 80 42 0.0 0.0 0.00 0.00 0.00 90 1008.6
20260904084449 80 42 0.0 0.0 0.00 0.00 0.00 89 1008.6
20260904083450 80 42 0.0 0.0 0.00 0.00 0.00 89 1008.6
20260904082449 80 42 0.0 0.0 0.00 0.00 0.00 89 1008.6
20260904081453 81 42 0.0 0.0 0.00 0.00 0.00 89 1008.7
20260904080450 81 42 0.0 0.0 0.00 0.00 0.00 89 1008.7
20260904075453 81 42 0.0 0.0 0.00 0.00 0.00 89 1008.7
20260904074449 81 42 0.0 0.0 0.00 0.00 0.00 89 1008.8
20260904073450 81 42 0.0 0.0 0.00 0.00 0.00 89 1008.8
20260904072450 81 42 0.0 0.0 0.00 0.00 0.00 89 1008.8
20260904071450 81 42 0.0 0.0 0.00 0.00 0.00 89 1009.0
20260904070450 81 42 0.0 0.0 0.00 0.00 0.00 89 1009.0
20260904065449 81 42 0.0 0.0 0.00 0.00 0.00 89 1009.1
20260904064450 81 42 0.0 0.0 0.00 0.00 0.00 89 1009.1
20260904063449 81 42 0.0 0.0 0.00 0.00 0.00 89 1009.1
20260904062450 81 42 0.0 0.0 0.00 0.00 0.00 89 1009.1
20260904061450 81 42 0.0 0.0 0.00 0.00 0.00 89 1009.1
20260904060449 81 42 0.0 0.0 0.00 0.00 0.00 89 1009.1
20260904055450 81 42 0.0 2.0 0.00 0.00 0.00 89 1009.1
20260904054450 81 42 0.0 2.0 0.00 0.00 0.00 89 1009.0
20260904053453 81 41 0.0 0.0 0.00 0.00 0.00 89 1009.0
20260904052450 81 41 0.0 0.0 0.00 0.00 0.00 89 1009.0
20260904051450 81 41 0.0 0.0 0.00 0.00 0.00 89 1009.1
20260904050453 81 41 0.0 1.0 0.00 0.00 0.50 89 1009.1
20260904045449 81 41 0.0 2.0 0.00 0.00 0.50 89 1009.1
20260904044449 81 40 0.0 0.0 0.00 0.00 0.50 89 1009.0
20260904043449 81 40 0.0 0.0 0.00 0.00 0.50 89 1009.0
20260904042449 81 40 0.0 0.0 0.00 0.00 0.50 89 1008.9
20260904041449 81 40 0.0 0.0 0.00 0.00 0.50 89 1009.0
20260904040449 81 40 0.0 2.0 0.00 0.00 0.50 90 1009.0
20260904035449 81 18 0.0 0.0 0.00 0.00 0.50 90 1009.1
20260904034450 81 18 0.0 1.0 0.00 0.00 0.50 90 1009.1
20260904033450 81 18 0.0 1.0 0.00 0.00 0.50 90 1009.1
20260904032453 81 18 0.0 0.0 0.00 0.00 0.50 90 1009.1
20260904031453 81 18 0.0 1.0 0.00 0.00 0.50 90 1009.1
20260904030450 81 18 0.0 1.0 0.00 0.00 0.50 90 1009.1
20260904025450 81 18 0.0 1.0 0.00 0.00 0.50 89 1009.0
20260904024449 80 17 0.0 0.0 0.00 0.00 0.50 89 1008.6
20260904023452 80 18 0.0 0.0 0.00 0.00 0.50 89 1008.6
20260904022452 80 18 0.0 0.0 0.00 0.00 0.50 88 1008.6
20260904021452 80 17 0.0 0.0 0.00 0.00 0.50 88 1008.5
20260904020452 80 18 0.0 0.0 0.00 0.00 0.50 88 1008.5
20260904015449 80 18 0.0 0.0 0.00 0.00 0.50 87 1008.2
20260904014449 80 18 0.0 0.0 0.00 0.00 0.50 87 1008.1
20260904013449 80 18 0.0 0.0 0.00 0.00 0.50 87 1008.1
20260904012449 80 18 0.0 0.0 0.00 0.00 0.50 87 1008.1
20260904011450 81 18 0.0 0.0 0.00 0.00 0.50 87 1008.1
20260904010449 81 18 0.0 0.0 0.00 0.00 0.50 87 1008.1
20260904005449 81 18 0.0 0.0 0.00 0.00 0.50 87 1008.0
20260904004449 81 18 0.0 0.0 0.00 0.00 0.50 88 1008.1
20260904003449 81 18 0.0 0.0 0.00 0.00 0.50 88 1008.1
20260904002449 81 18 0.0 0.0 0.00 0.00 0.50 88 1008.1
20260904001449 81 18 0.0 0.0 0.00 0.00 0.50 88 1008.1
20260904000449 81 18 0.0 0.0 0.00 0.00 0.50 88 1008.1
20260903235452 81 18 0.0 0.0 0.00 0.00 0.50 88 1008.1
20260903234452 81 18 0.0 0.0 0.00 0.00 0.50 88 1008.1
20260903233449 81 18 0.0 0.0 0.00 0.00 0.50 88 1008.1
20260903232452 80 18 0.0 0.0 0.00 0.00 0.50 88 1008.5
20260903231449 80 18 0.0 0.0 0.00 0.00 0.50 88 1008.5
20260903230449 80 18 0.0 0.0 0.00 0.00 0.50 88 1008.5
20260903225452 80 18 0.0 0.0 0.00 0.00 0.50 88 1008.5
20260903224449 80 18 0.0 0.0 0.00 0.00 0.50 88 1008.4
20260903223449 80 18 0.0 0.0 0.00 0.00 0.50 88 1008.4
20260903222449 80 18 0.0 0.0 0.00 0.00 0.50 88 1008.4
20260903221449 80 18 0.0 0.0 0.00 0.00 0.50 88 1008.6
20260903220449 80 18 0.0 1.0 0.00 0.00 0.50 88 1008.6
20260903215452 80 18 0.0 1.0 0.00 0.00 0.50 88 1009.0
20260903214449 80 18 0.0 1.0 0.00 0.00 0.50 87 1009.2
20260903213449 79 17 0.0 0.0 0.00 0.00 0.49 86 1009.2
20260903212449 79 17 0.0 0.0 0.00 0.00 0.49 86 1009.5
20260903211449 79 17 0.0 0.0 0.00 0.00 0.48 86 1009.2
20260903210452 79 17 0.0 0.0 0.00 0.00 0.47 85 1009.2
20260903205449 78 17 0.0 0.0 0.00 0.00 0.45 83 1009.4
20260903204449 79 17 0.0 0.0 0.00 0.00 0.43 82 1009.6
20260903203452 79 17 0.0 0.0 0.00 0.00 0.43 82 1009.6
20260903202452 79 17 0.0 0.0 0.00 0.00 0.43 82 1009.7
20260903201449 80 17 0.0 1.0 0.00 0.00 0.42 82 1009.6
20260903200449 80 17 0.0 2.0 0.00 0.00 0.42 82 1009.6
20260903195449 81 18 0.0 0.0 0.00 0.00 0.42 80 1009.6
20260903194452 81 18 0.0 1.0 0.00 0.00 0.41 79 1009.9
20260903193449 81 18 0.0 0.0 0.00 0.00 0.39 77 1009.9
20260903192452 81 18 0.0 0.0 0.00 0.00 0.37 76 1010.6
20260903191449 82 19 0.0 2.0 0.00 0.00 0.37 74 1009.9